CW7693 Weather Reports


time (UTC)temp
F
wind
direction
speed
knots
gust
knots
rain 1hr
in
rain 24hr
in
rain mn
in
humidity
%
barometer
mb
20240614130002 67 219 0.9 3.5 0.00 0.00 0.00 57 1012.5
20240614124604 67 186 1.7 4.3 0.00 0.00 0.00 60 1012.8
20240614123002 67 300 1.7 3.5 0.00 0.00 0.00 62 1012.9
20240614121608 64 188 0.9 5.2 0.00 0.00 0.00 66 1013.2
20240614120002 62 254 2.6 7.8 0.00 0.00 0.00 67 1013.6
20240614114601 60 145 1.7 7.8 0.00 0.00 0.00 73 1013.9
20240614113002 59 167 1.7 6.1 0.00 0.00 0.00 74 1014.2
20240614111602 58 159 0.9 4.3 0.00 0.00 0.00 77 1014.7
20240614110003 57 69 0.0 2.6 0.00 0.00 0.00 79 1014.7
20240614104603 57 28 0.9 2.6 0.00 0.00 0.00 79 1014.8
20240614103002 57 346 0.9 7.0 0.00 0.00 0.00 80 1014.8
20240614101611 56 317 2.6 9.6 0.00 0.00 0.00 78 1014.7
20240614100010 57 355 5.2 9.6 0.00 0.00 0.00 77 1014.6
20240614094608 57 325 5.2 10.4 0.00 0.01 0.00 77 1014.5
20240614093002 57 349 6.1 11.3 0.00 0.01 0.00 73 1014.3
20240614091604 59 331 6.1 12.2 0.00 0.01 0.00 69 1014.1
20240614090003 61 340 4.3 8.7 0.00 0.01 0.00 64 1014.0
20240614084604 61 269 0.9 5.2 0.00 0.02 0.00 61 1014.1
20240614083106 60 285 2.6 7.8 0.00 0.02 0.00 60 1014.1
20240614081502 60 252 2.6 7.8 0.00 0.02 0.00 61 1014.1
20240614080102 59 238 1.7 7.0 0.00 0.02 0.00 63 1014.1
20240614074502 57 270 1.7 4.3 0.00 0.02 0.00 70 1014.0
20240614073103 55 255 0.0 3.5 0.00 0.02 0.00 76 1013.8
20240614071503 55 163 0.9 2.6 0.00 0.02 0.00 77 1013.7
20240614070103 54 225 0.0 5.2 0.00 0.02 0.00 78 1013.6
20240614064503 53 190 1.7 3.5 0.00 0.02 0.00 80 1013.6
20240614063106 52 165 1.7 6.1 0.00 0.02 0.00 81 1013.5
20240614061505 51 133 2.6 4.3 0.00 0.02 0.00 82 1013.6
20240614060113 51 151 1.7 3.5 0.00 0.02 0.00 82 1013.6
20240614054501 49 134 2.6 5.2 0.00 0.02 0.00 85 1013.6
20240614053103 49 181 2.6 5.2 0.00 0.02 0.00 86 1013.8
20240614051502 48 184 1.7 4.3 0.00 0.02 0.00 87 1013.6
20240614050104 47 182 0.9 3.5 0.00 0.02 0.00 87 1013.9
20240614044504 47 178 1.7 5.2 0.00 0.02 0.00 87 1013.6
20240614043104 47 204 0.9 6.1 0.00 0.02 0.00 87 1013.7
20240614041504 46 150 0.9 7.0 0.00 0.02 0.00 88 1013.8
20240614040107 46 178 1.7 5.2 0.00 0.02 0.00 88 1013.9
20240614034504 47 197 2.6 5.2 0.00 0.02 0.00 87 1014.0
20240614033102 47 132 1.7 5.2 0.00 0.02 0.00 87 1013.9
20240614031503 46 162 1.7 4.3 0.00 0.02 0.00 89 1014.0
20240614030102 46 148 1.7 3.5 0.00 0.02 0.00 88 1014.1
20240614024506 46 236 1.7 3.5 0.00 0.02 0.00 89 1014.1
20240614023109 45 142 3.5 5.2 0.00 0.02 0.00 90 1014.1
20240614021503 45 150 1.7 4.3 0.00 0.02 0.00 90 1014.0
20240614020103 45 143 1.7 5.2 0.00 0.02 0.00 90 1014.0
20240614014504 45 155 2.6 4.3 0.00 0.02 0.00 89 1014.1
20240614013103 45 163 0.9 4.3 0.00 0.02 0.00 89 1014.2
20240614011503 46 140 2.6 4.3 0.00 0.02 0.00 89 1014.4
20240614010102 46 157 1.7 4.3 0.00 0.02 0.00 89 1014.4
20240614004502 46 138 0.9 3.5 0.00 0.02 0.00 89 1014.7
20240614003103 46 149 0.9 3.5 0.00 0.02 0.00 89 1014.7
20240614001506 46 134 0.9 4.3 0.00 0.02 0.00 89 1014.5
20240614000117 46 153 1.7 5.2 0.00 0.02 0.00 88 1014.5
20240613234502 46 165 1.7 3.5 0.00 0.02 0.00 88 1014.7
20240613233104 47 146 1.7 4.3 0.00 0.02 0.00 87 1014.8
20240613231502 47 157 1.7 4.3 0.00 0.02 0.00 86 1014.9
20240613230103 48 139 0.9 3.5 0.00 0.02 0.00 87 1014.8
20240613224508 47 150 1.7 3.5 0.00 0.02 0.00 86 1015.1
20240613223103 48 150 0.0 2.6 0.00 0.02 0.00 86 1015.0
20240613221503 48 134 0.9 3.5 0.00 0.02 0.00 85 1015.1
20240613220106 49 144 0.9 3.5 0.00 0.02 0.00 85 1015.1
20240613214505 49 142 0.9 3.5 0.00 0.02 0.02 85 1015.2
20240613213102 49 140 0.9 2.6 0.00 0.02 0.02 84 1015.2
20240613211505 50 122 0.0 0.0 0.00 0.02 0.02 83 1015.3
20240613210102 50 122 0.0 0.0 0.00 0.02 0.02 82 1015.4
20240613204503 51 122 0.0 0.0 0.00 0.02 0.02 81 1015.5
20240613203102 51 122 0.0 0.0 0.00 0.02 0.02 81 1015.5
20240613201503 52 122 0.0 2.6 0.00 0.02 0.02 79 1015.6
20240613200105 53 121 0.0 2.6 0.00 0.02 0.02 78 1015.6
20240613194503 54 121 0.9 1.7 0.00 0.02 0.02 76 1015.6
20240613193103 55 121 0.0 0.9 0.00 0.02 0.02 74 1015.6
20240613191503 56 34 0.0 2.6 0.00 0.02 0.02 70 1015.5
20240613190104 57 36 1.7 3.5 0.00 0.02 0.02 65 1015.4
20240613184603 58 273 0.0 1.7 0.00 0.02 0.02 62 1015.5
20240613183002 60 268 0.9 4.3 0.00 0.02 0.02 59 1015.4
20240613181603 61 254 0.9 5.2 0.00 0.02 0.02 58 1015.4
20240613180003 62 206 0.0 0.0 0.00 0.02 0.02 51 1015.4
20240613174617 62 206 0.0 1.7 0.00 0.02 0.02 51 1015.4
20240613173007 61 205 0.0 1.7 0.00 0.02 0.02 54 1015.4
20240613171636 62 234 0.0 2.6 0.00 0.02 0.02 52 1015.4
20240613170002 62 201 0.0 2.6 0.00 0.02 0.02 53 1015.5
20240613164602 62 188 0.9 3.5 0.00 0.02 0.02 52 1015.5
20240613163004 62 263 0.0 1.7 0.00 0.02 0.02 54 1015.4
20240613161624 61 194 0.9 3.5 0.00 0.02 0.02 56 1015.4
20240613160002 61 183 1.7 3.5 0.00 0.02 0.02 57 1015.4
20240613154607 62 200 2.6 5.2 0.00 0.02 0.02 54 1015.5
20240613153002 64 221 0.9 4.3 0.00 0.02 0.02 51 1015.7
20240613151602 64 284 1.7 4.3 0.00 0.02 0.02 48 1015.7
20240613150003 64 312 0.9 3.5 0.00 0.02 0.02 47 1015.9
20240613144615 64 257 2.6 6.1 0.00 0.02 0.02 51 1016.0
20240613143003 64 348 0.0 4.3 0.00 0.02 0.02 50 1016.1
20240613141602 63 135 0.9 4.3 0.00 0.02 0.02 53 1016.2
20240613140002 62 103 0.9 3.5 0.00 0.02 0.02 55 1016.2
20240613134612 61 59 0.9 3.5 0.00 0.02 0.02 56 1016.4
20240613133002 61 344 0.0 3.5 0.00 0.02 0.02 57 1016.5
20240613131603 61 156 1.7 5.2 0.00 0.02 0.02 55 1016.5